#timestamp,LO_Frequency,Hit,StdDev 
1612832415.2,286046980.0,Y
1612832435.0,286046999.1,P
1612832435.9,286046999.1,N
1612832455.8,286046999.0,N
1612832475.6,286047006.3,N
1612832495.4,286047011.7,N
1612832515.3,286047019.8,N
1612832535.1,286047025.8,N
1612832555.9,286047034.3,N
1612832575.7,286047047.2,Y
1612832595.5,286047051.7,P
1612832615.4,286047070.8,P
1612832635.2,286047084.4,P
1612832655.0,286047085.7,Y
1612832656.0,286047085.7,P
1612832675.8,286047036.6,N
1612832695.6,286047049.3,N
1612832715.5,286047056.6,Y
1612832735.3,286047001.7,P
1612832755.1,286047002.0,N
1612832775.9,286046996.6,N
1612832795.7,286046991.3,N
1612832815.6,286046981.7,N
1612832835.4,286046975.6,N
1612832855.2,286046969.0,N
1612832875.1,286046963.1,N
1612832876.0,286046963.1,N
1612832895.8,286046960.8,N
1612832915.6,286046954.2,N
1612832935.5,286046946.8,N
1612832955.3,286046941.0,N
1612832975.1,286046938.5,N
1612832995.9,286046931.8,N
1612833015.7,286046930.5,N
1612833035.6,286046927.9,N
1612833055.4,286046922.7,N
1612833075.2,286046917.3,N
1612833095.1,286046918.2,N
1612833096.0,286046918.2,N
1612833115.8,286046917.3,N
1612833135.6,286046917.2,N
1612833155.5,286046920.7,N
1612833175.3,286046915.9,N
1612833195.2,286046914.3,N
1612833215.9,286046914.9,N
1612833235.7,286046910.3,N
1612833255.6,286046910.8,N
1612833275.4,286046909.6,N
1612833295.3,286046901.8,Y
1612833315.1,286046950.1,P
1612833316.0,286046950.1,P
1612833335.8,286046956.6,P
1612833355.7,286046956.2,Y
1612833375.5,286047009.2,P
1612833395.3,286047005.2,N
1612833415.2,286047006.4,N
1612833435.0,286047005.7,N
1612833435.9,286047005.7,N
1612833455.8,286046998.1,N
1612833475.6,286046994.6,N
1612833495.4,286046988.2,N
1612833515.3,286046986.9,N
1612833535.1,286046986.7,N
1612833555.8,286046980.4,N
1612833575.7,286046981.2,N
1612833595.5,286046987.1,N
1612833615.4,286046986.7,N
1612833635.2,286046988.9,N
1612833655.0,286046997.4,N
1612833655.9,286046997.4,N
1612833675.8,286047003.3,N
1612833695.6,286047001.8,N
1612833715.4,286046997.2,N
1612833735.3,286046994.6,N
1612833755.1,286047000.3,N
1612833775.8,286047002.9,N
1612833795.7,286047001.7,N
1612833815.5,286047000.3,N
1612833835.4,286046996.1,N
1612833855.2,286047000.3,N
1612833875.0,286046998.6,N
1612833875.9,286046998.6,N
1612833895.8,286046986.5,N
1612833915.6,286046992.4,N
1612833935.4,286047004.7,N
1612833955.3,286047005.1,N
1612833975.1,286047007.2,N
1612833995.9,286047010.3,N
1612834015.7,286047023.5,Y
1612834035.5,286047028.7,P
1612834055.4,286047026.9,N
1612834075.2,286047024.2,N
1612834095.0,286047021.2,N
1612834096.0,286047021.2,N
1612834115.8,286047017.3,N
1612834135.6,286047023.0,N
1612834155.5,286047025.1,N
1612834175.3,286047024.9,N
1612834195.1,286047021.7,N
1612834215.9,286047019.8,N
1612834235.7,286047017.3,N
1612834255.5,286047013.2,N
1612834275.4,286047008.5,N
1612834295.2,286047010.3,N
1612834315.1,286047007.7,N
1612834316.0,286047007.7,N
1612834335.8,286047015.6,N
1612834355.6,286047016.3,N
1612834375.5,286047019.7,N
1612834395.3,286047014.5,N
1612834415.1,286047016.3,N
1612834435.9,286047014.1,N
1612834455.7,286047014.7,N
1612834475.6,286047008.4,N
1612834495.4,286047011.8,N
1612834515.2,286047013.2,N
1612834535.1,286047014.7,N
1612834536.0,286047014.7,N
1612834555.8,286047021.7,Y
1612834575.7,286047014.1,P
1612834595.5,286047019.0,P
1612834615.3,286047023.8,P
1612834635.2,286047027.1,Y
1612834655.0,286047010.8,P
1612834655.9,286047010.8,N
1612834675.7,286047014.0,P
1612834695.6,286047013.1,Y
1612834715.4,286046997.1,P
1612834735.3,286046992.2,N
1612834755.1,286046991.3,N
1612834775.8,286046986.6,N
1612834795.7,286046978.0,N
1612834815.5,286046971.2,N
1612834835.4,286046963.7,N
1612834855.2,286046961.6,N
1612834875.0,286046960.0,N
1612834875.9,286046960.0,N
1612834895.8,286046963.7,N
1612834915.6,286046960.1,N
1612834935.4,286046954.1,N
1612834955.3,286046953.4,N
1612834975.1,286046963.0,N
1612834995.9,286046969.7,N
1612835015.7,286046968.7,N
1612835035.5,286046967.7,N
1612835055.4,286046975.1,N
1612835075.2,286046966.1,N
1612835095.0,286046963.9,N
1612835095.9,286046963.9,N
1612835115.8,286046957.9,N
1612835135.6,286046956.3,N
1612835155.5,286046960.9,N
1612835175.3,286046960.0,N
1612835225.2,286046957.6,E
1612835235.1,286046978.8,N
1612835236.0,286046978.8,P
1612835255.8,286046993.7,P
1612835275.6,286046995.7,N
1612835295.5,286046992.6,N
1612835315.3,286046987.9,N
1612835335.2,286046985.0,N
1612835355.9,286046989.6,N
1612835375.7,286046996.4,N
1612835395.6,286047002.8,N
1612835415.4,286047001.5,N
1612835435.2,286047005.8,N
1612835455.1,286047003.3,N
1612835456.0,286047003.3,N
1612835475.8,286046995.8,N
1612835495.7,286046991.9,N
1612835515.5,286046996.5,N
1612835535.3,286046992.3,N
1612835555.2,286046993.2,N
1612835575.0,286046997.5,N
1612835575.9,286046997.5,N
1612835595.8,286047004.1,N
1612835615.6,286046998.7,N
1612835635.4,286046996.9,N
1612835655.3,286047001.5,N
1612835675.1,286047006.4,N
1612835695.8,286047001.0,N
1612835715.7,286047000.8,N
1612835735.5,286046995.3,N
1612835755.4,286046994.7,N
1612835775.2,286046999.5,N
1612835795.0,286046996.6,N
1612835795.9,286046996.6,N
1612835815.8,286047001.1,N
1612835835.6,286047006.9,N
1612835855.4,286047004.1,N
1612835875.3,286046999.8,N
1612835895.1,286047000.8,N
1612835915.9,286047001.1,N
1612835935.7,286046997.2,N
1612835955.5,286046991.4,N
1612835975.4,286046990.2,N
1612835995.2,286046988.2,N
